Location: Newark
(41.0400°S, 62.7845°W)
Time: 06:05:51
(UTC+00:00)

Envisat - Visible Passes

Search period start: 23 October 2021 00:00
Search period end: 02 November 2021 00:00
Orbit: 764 x 766 km, 98.2° (Epoch: 22 October)

Date Brightness Start Highest point End Pass type
(mag) Time Alt. Az. Time Alt. Az. Time Alt. Az.
23 Oct 6.0 07:04:47 10° E 07:07:55 17° ESE 07:11:04 10° SSE visible
23 Oct 3.0 08:41:18 10° N 08:46:22 64° W 08:51:30 10° SSW visible
24 Oct 3.8 08:04:33 10° NNE 08:09:33 58° ESE 08:14:37 10° S visible
25 Oct 5.3 07:28:42 10° ENE 07:32:57 27° ESE 07:37:14 10° S visible
26 Oct 6.2 06:54:12 10° E 06:56:33 13° ESE 06:58:54 10° SSE visible
26 Oct 3.0 08:29:43 10° N 08:34:50 82° WNW 08:40:01 10° SSW visible
27 Oct 4.3 07:53:13 10° NE 07:58:04 46° ESE 08:03:00 10° S visible
28 Oct 5.6 07:17:40 10° ENE 07:21:33 22° ESE 07:25:25 10° SSE visible
29 Oct 6.4 06:44:22 10° ESE 06:45:12 10° ESE 06:46:00 10° SE visible
29 Oct 3.2 08:18:12 10° NNE 08:23:19 79° ESE 08:28:29 10° S visible
30 Oct 4.7 07:41:59 10° NE 07:46:37 36° ESE 07:51:19 10° S visible
31 Oct 6.0 07:06:48 10° ENE 07:10:09 18° ESE 07:13:29 10° SSE visible
01 Nov 3.6 08:06:46 10° NNE 08:11:49 63° ESE 08:16:55 10° S visible
